Year,Month,Day,Hour,Minute,Value (Times are PST for temperature in C)
2019,01,30,00,00,1.00
2019,01,30,00,01,1.00
2019,01,30,00,02,1.00
2019,01,30,00,03,1.00
2019,01,30,00,04,1.00
2019,01,30,00,05,0.90
2019,01,30,00,06,0.90
2019,01,30,00,07,0.90
2019,01,30,00,08,0.90
2019,01,30,00,09,0.90
2019,01,30,00,10,0.90
2019,01,30,00,11,0.90
2019,01,30,00,12,0.90
2019,01,30,00,13,0.90
2019,01,30,00,14,0.80
2019,01,30,00,15,0.80
2019,01,30,00,16,0.80
2019,01,30,00,17,0.80
2019,01,30,00,18,0.80
2019,01,30,00,19,0.80
2019,01,30,00,20,0.80
2019,01,30,00,21,0.80
2019,01,30,00,22,0.80
2019,01,30,00,23,0.80
2019,01,30,00,24,0.80
2019,01,30,00,25,0.70
2019,01,30,00,26,0.70
2019,01,30,00,27,0.70
2019,01,30,00,28,0.70
2019,01,30,00,29,0.70
2019,01,30,00,30,0.70
2019,01,30,00,31,0.70
2019,01,30,00,32,0.70
2019,01,30,00,33,0.70
2019,01,30,00,34,0.70
2019,01,30,00,35,0.70
2019,01,30,00,36,0.60
2019,01,30,00,37,0.60
2019,01,30,00,38,0.60
2019,01,30,00,39,0.60
2019,01,30,00,40,0.60
2019,01,30,00,41,0.60
2019,01,30,00,42,0.60
2019,01,30,00,43,0.60
2019,01,30,00,44,0.50
2019,01,30,00,45,0.50
2019,01,30,00,46,0.50
2019,01,30,00,47,0.50
2019,01,30,00,48,0.50
2019,01,30,00,49,0.50
2019,01,30,00,50,0.40
2019,01,30,00,51,0.40
2019,01,30,00,52,0.40
2019,01,30,00,53,0.40
2019,01,30,00,54,0.40
2019,01,30,00,55,0.40
2019,01,30,00,56,0.40
2019,01,30,00,57,0.40
2019,01,30,00,58,0.40
2019,01,30,00,59,0.30
2019,01,30,01,00,0.30
2019,01,30,01,01,0.30
2019,01,30,01,02,0.30
2019,01,30,01,03,0.30
2019,01,30,01,04,0.30
2019,01,30,01,05,0.30
2019,01,30,01,06,0.30
2019,01,30,01,07,0.30
2019,01,30,01,08,0.30
2019,01,30,01,09,0.30
2019,01,30,01,10,0.30
2019,01,30,01,11,0.30
2019,01,30,01,12,0.30
2019,01,30,01,13,0.30
2019,01,30,01,14,0.30
2019,01,30,01,15,0.20
2019,01,30,01,16,0.20
2019,01,30,01,17,0.20
2019,01,30,01,18,0.20
2019,01,30,01,19,0.20
2019,01,30,01,20,0.20
2019,01,30,01,21,0.20
2019,01,30,01,22,0.20
2019,01,30,01,23,0.20
2019,01,30,01,24,0.20
2019,01,30,01,25,0.20
2019,01,30,01,26,0.20
2019,01,30,01,27,0.20
2019,01,30,01,28,0.20
2019,01,30,01,29,0.20
2019,01,30,01,30,0.20
2019,01,30,01,31,0.20
2019,01,30,01,32,0.20
2019,01,30,01,33,0.20
2019,01,30,01,34,0.20
2019,01,30,01,35,0.20
2019,01,30,01,36,0.20
2019,01,30,01,37,0.20
2019,01,30,01,38,0.20
2019,01,30,01,39,0.20
2019,01,30,01,40,0.20
2019,01,30,01,41,0.20
2019,01,30,01,42,0.20
2019,01,30,01,43,0.20
2019,01,30,01,44,0.20
2019,01,30,01,45,0.20
2019,01,30,01,46,0.20
2019,01,30,01,47,0.20
2019,01,30,01,48,0.20
2019,01,30,01,49,0.20
2019,01,30,01,50,0.20
2019,01,30,01,51,0.20
2019,01,30,01,52,0.20
2019,01,30,01,53,0.20
2019,01,30,01,54,0.20
2019,01,30,01,55,0.20
2019,01,30,01,56,0.20
2019,01,30,01,57,0.20
2019,01,30,01,58,0.20
2019,01,30,01,59,0.20
2019,01,30,02,00,0.20
2019,01,30,02,01,0.20
2019,01,30,02,02,0.20
2019,01,30,02,03,0.20
2019,01,30,02,04,0.20
2019,01,30,02,05,0.20
2019,01,30,02,06,0.20
2019,01,30,02,07,0.20
2019,01,30,02,08,0.20
2019,01,30,02,09,0.20
2019,01,30,02,10,0.20
2019,01,30,02,11,0.20
2019,01,30,02,12,0.20
2019,01,30,02,13,0.20
2019,01,30,02,14,0.20
2019,01,30,02,15,0.20
2019,01,30,02,16,0.20
2019,01,30,02,17,0.20
2019,01,30,02,18,0.20
2019,01,30,02,19,0.20
2019,01,30,02,20,0.20
2019,01,30,02,21,0.20
2019,01,30,02,22,0.20
2019,01,30,02,23,0.30
2019,01,30,02,24,0.30
2019,01,30,02,25,0.30
2019,01,30,02,26,0.30
2019,01,30,02,27,0.30
2019,01,30,02,28,0.30
2019,01,30,02,29,0.30
2019,01,30,02,30,0.30
2019,01,30,02,31,0.30
2019,01,30,02,32,0.30
2019,01,30,02,33,0.30
2019,01,30,02,34,0.30
2019,01,30,02,35,0.30
2019,01,30,02,36,0.20
2019,01,30,02,37,0.20
2019,01,30,02,38,0.20
2019,01,30,02,39,0.20
2019,01,30,02,40,0.20
2019,01,30,02,41,0.20
2019,01,30,02,42,0.20
2019,01,30,02,43,0.20
2019,01,30,02,44,0.20
2019,01,30,02,45,0.20
2019,01,30,02,46,0.20
2019,01,30,02,47,0.20
2019,01,30,02,48,0.20
2019,01,30,02,49,0.20
2019,01,30,02,50,0.20
2019,01,30,02,51,0.20
2019,01,30,02,52,0.20
2019,01,30,02,53,0.30
2019,01,30,02,54,0.20
2019,01,30,02,55,0.20
2019,01,30,02,56,0.20
2019,01,30,02,57,0.20
2019,01,30,02,58,0.20
2019,01,30,02,59,0.30
2019,01,30,03,00,0.30
2019,01,30,03,01,0.30
2019,01,30,03,02,0.30
2019,01,30,03,03,0.30
2019,01,30,03,04,0.30
2019,01,30,03,05,0.30
2019,01,30,03,06,0.30
2019,01,30,03,07,0.30
2019,01,30,03,08,0.30
2019,01,30,03,09,0.30
2019,01,30,03,10,0.30
2019,01,30,03,11,0.30
2019,01,30,03,12,0.30
2019,01,30,03,13,0.30
2019,01,30,03,14,0.30
2019,01,30,03,15,0.30
2019,01,30,03,16,0.30
2019,01,30,03,17,0.30
2019,01,30,03,18,0.30
2019,01,30,03,19,0.30
2019,01,30,03,20,0.30
2019,01,30,03,21,0.30
2019,01,30,03,22,0.30
2019,01,30,03,23,0.30
2019,01,30,03,24,0.30
2019,01,30,03,25,0.30
2019,01,30,03,26,0.30
2019,01,30,03,27,0.30
2019,01,30,03,28,0.30
2019,01,30,03,29,0.30
2019,01,30,03,30,0.30
2019,01,30,03,31,0.30
2019,01,30,03,32,0.30
2019,01,30,03,33,0.30
2019,01,30,03,34,0.30
2019,01,30,03,35,0.30
2019,01,30,03,36,0.30
2019,01,30,03,37,0.30
2019,01,30,03,38,0.30
2019,01,30,03,39,0.30
2019,01,30,03,40,0.30
2019,01,30,03,41,0.30
2019,01,30,03,42,0.30
2019,01,30,03,43,0.30
2019,01,30,03,44,0.30
2019,01,30,03,45,0.30
2019,01,30,03,46,0.30
2019,01,30,03,47,0.30
2019,01,30,03,48,0.30
2019,01,30,03,49,0.30
2019,01,30,03,50,0.30
2019,01,30,03,51,0.30
2019,01,30,03,52,0.30
2019,01,30,03,53,0.40
2019,01,30,03,54,0.40
2019,01,30,03,55,0.40
2019,01,30,03,56,0.40
2019,01,30,03,57,0.40
2019,01,30,03,58,0.40
2019,01,30,03,59,0.40
2019,01,30,04,00,0.40
2019,01,30,04,01,0.40
2019,01,30,04,02,0.40
2019,01,30,04,03,0.40
2019,01,30,04,04,0.40
2019,01,30,04,05,0.40
2019,01,30,04,06,0.40
2019,01,30,04,07,0.40
2019,01,30,04,08,0.50
2019,01,30,04,09,0.50
2019,01,30,04,10,0.50
2019,01,30,04,11,0.50
2019,01,30,04,12,0.50
2019,01,30,04,13,0.50
2019,01,30,04,14,0.50
2019,01,30,04,15,0.50
2019,01,30,04,16,0.50
2019,01,30,04,17,0.50
2019,01,30,04,18,0.50
2019,01,30,04,19,0.60
2019,01,30,04,20,0.60
2019,01,30,04,21,0.60
2019,01,30,04,22,0.60
2019,01,30,04,23,0.60
2019,01,30,04,24,0.60
2019,01,30,04,25,0.60
2019,01,30,04,26,0.60
2019,01,30,04,27,0.60
2019,01,30,04,28,0.60
2019,01,30,04,29,0.60
2019,01,30,04,30,0.60
2019,01,30,04,31,0.60
2019,01,30,04,32,0.60
2019,01,30,04,33,0.70
2019,01,30,04,34,0.70
2019,01,30,04,35,0.70
2019,01,30,04,36,0.70
2019,01,30,04,37,0.70
2019,01,30,04,38,0.70
2019,01,30,04,39,0.70
2019,01,30,04,40,0.70
2019,01,30,04,41,0.80
2019,01,30,04,42,0.80
2019,01,30,04,43,0.80
2019,01,30,04,44,0.80
2019,01,30,04,45,0.80
2019,01,30,04,46,0.80
2019,01,30,04,47,0.80
2019,01,30,04,48,0.80
2019,01,30,04,49,0.80
2019,01,30,04,50,0.80
2019,01,30,04,51,0.80
2019,01,30,04,52,0.80
2019,01,30,04,53,0.80
2019,01,30,04,54,0.80
2019,01,30,04,55,0.80
2019,01,30,04,56,0.80
2019,01,30,04,57,0.80
2019,01,30,04,58,0.80
2019,01,30,04,59,0.80
2019,01,30,05,00,0.80
2019,01,30,05,01,0.80
2019,01,30,05,02,0.80
2019,01,30,05,03,0.80
2019,01,30,05,04,0.80
2019,01,30,05,05,0.80
2019,01,30,05,06,0.80
2019,01,30,05,07,0.80
2019,01,30,05,08,0.80
2019,01,30,05,09,0.80
2019,01,30,05,10,0.80
2019,01,30,05,11,0.90
2019,01,30,05,12,0.90
2019,01,30,05,13,0.90
2019,01,30,05,14,0.90
2019,01,30,05,15,0.90
2019,01,30,05,16,0.90
2019,01,30,05,17,0.90
2019,01,30,05,18,0.90
2019,01,30,05,19,0.90
2019,01,30,05,20,0.90
2019,01,30,05,21,0.90
2019,01,30,05,22,0.90
2019,01,30,05,23,0.90
2019,01,30,05,24,0.90
2019,01,30,05,25,0.90
2019,01,30,05,26,0.90
2019,01,30,05,27,0.90
2019,01,30,05,28,0.90
2019,01,30,05,29,0.90
2019,01,30,05,30,0.90
2019,01,30,05,31,0.90
2019,01,30,05,32,0.90
2019,01,30,05,33,0.90
2019,01,30,05,34,0.90
2019,01,30,05,35,0.90
2019,01,30,05,36,0.90
2019,01,30,05,37,0.90
2019,01,30,05,38,0.90
2019,01,30,05,39,0.90
2019,01,30,05,40,1.00
2019,01,30,05,41,1.00
2019,01,30,05,42,1.00
2019,01,30,05,43,1.00
2019,01,30,05,44,1.00
2019,01,30,05,45,1.00
2019,01,30,05,46,1.00
2019,01,30,05,47,1.00
2019,01,30,05,48,1.00
2019,01,30,05,49,1.00
2019,01,30,05,50,1.00
2019,01,30,05,51,1.10
2019,01,30,05,52,1.00
2019,01,30,05,53,1.10
2019,01,30,05,54,1.10
2019,01,30,05,55,1.10
2019,01,30,05,56,1.10
2019,01,30,05,57,1.10
2019,01,30,05,58,1.10
2019,01,30,05,59,1.10
2019,01,30,06,00,1.10
2019,01,30,06,01,1.10
2019,01,30,06,02,1.10
2019,01,30,06,03,1.10
2019,01,30,06,04,1.10
2019,01,30,06,05,1.10
2019,01,30,06,06,1.20
2019,01,30,06,07,1.20
2019,01,30,06,08,1.20
2019,01,30,06,09,1.20
2019,01,30,06,10,1.20
2019,01,30,06,11,1.20
2019,01,30,06,12,1.20
2019,01,30,06,13,1.20
2019,01,30,06,14,1.20
2019,01,30,06,15,1.20
2019,01,30,06,16,1.20
2019,01,30,06,17,1.20
2019,01,30,06,18,1.20
2019,01,30,06,19,1.20
2019,01,30,06,20,1.20
2019,01,30,06,21,1.20
2019,01,30,06,22,1.30
2019,01,30,06,23,1.30
2019,01,30,06,24,1.30
2019,01,30,06,25,1.30
2019,01,30,06,26,1.30
2019,01,30,06,27,1.30
2019,01,30,06,28,1.30
2019,01,30,06,29,1.30
2019,01,30,06,30,1.30
2019,01,30,06,31,1.30
2019,01,30,06,32,1.30
2019,01,30,06,33,1.30
2019,01,30,06,34,1.30
2019,01,30,06,35,1.30
2019,01,30,06,36,1.30
2019,01,30,06,37,1.30
2019,01,30,06,38,1.30
2019,01,30,06,39,1.30
2019,01,30,06,40,1.30
2019,01,30,06,41,1.30
2019,01,30,06,42,1.30
2019,01,30,06,43,1.30
2019,01,30,06,44,1.30
2019,01,30,06,45,1.40
2019,01,30,06,46,1.40
2019,01,30,06,47,1.40
2019,01,30,06,48,1.40
2019,01,30,06,49,1.40
2019,01,30,06,50,1.40
2019,01,30,06,51,1.40
2019,01,30,06,52,1.40
2019,01,30,06,53,1.40
2019,01,30,06,54,1.40
2019,01,30,06,55,1.40
2019,01,30,06,56,1.40
2019,01,30,06,57,1.40
2019,01,30,06,58,1.50
2019,01,30,06,59,1.50
2019,01,30,07,00,1.50
2019,01,30,07,01,1.50
2019,01,30,07,02,1.50
2019,01,30,07,03,1.60
2019,01,30,07,04,1.60
2019,01,30,07,05,1.60
2019,01,30,07,06,1.60
2019,01,30,07,07,1.60
2019,01,30,07,08,1.60
2019,01,30,07,09,1.60
2019,01,30,07,10,1.60
2019,01,30,07,11,1.60
2019,01,30,07,12,1.60
2019,01,30,07,13,1.70
2019,01,30,07,14,1.70
2019,01,30,07,15,1.70
2019,01,30,07,16,1.70
2019,01,30,07,17,1.70
2019,01,30,07,18,1.70
2019,01,30,07,19,1.70
2019,01,30,07,20,1.70
2019,01,30,07,21,1.70
2019,01,30,07,22,1.70
2019,01,30,07,23,1.70
2019,01,30,07,24,1.70
2019,01,30,07,25,1.70
2019,01,30,07,26,1.70
2019,01,30,07,27,1.70
2019,01,30,07,28,1.70
2019,01,30,07,29,1.70
2019,01,30,07,30,1.70
2019,01,30,07,31,1.70
2019,01,30,07,32,1.70
2019,01,30,07,33,1.70
2019,01,30,07,34,1.70
2019,01,30,07,35,1.70
2019,01,30,07,36,1.70
2019,01,30,07,37,1.70
2019,01,30,07,38,1.70
2019,01,30,07,39,1.70
2019,01,30,07,40,1.70
2019,01,30,07,41,1.70
2019,01,30,07,42,1.70
2019,01,30,07,43,1.70
2019,01,30,07,44,1.70
2019,01,30,07,45,1.70
2019,01,30,07,46,1.70
2019,01,30,07,47,1.70
2019,01,30,07,48,1.70
2019,01,30,07,49,1.70
2019,01,30,07,50,1.70
2019,01,30,07,51,1.70
2019,01,30,07,52,1.70
2019,01,30,07,53,1.70
2019,01,30,07,54,1.80
2019,01,30,07,55,1.80
2019,01,30,07,56,1.80
2019,01,30,07,57,1.80
2019,01,30,07,58,1.80
2019,01,30,07,59,1.80
2019,01,30,08,00,1.80
2019,01,30,08,01,1.80
2019,01,30,08,02,1.80
2019,01,30,08,03,1.80
2019,01,30,08,04,1.80
2019,01,30,08,05,1.80
2019,01,30,08,06,1.80
2019,01,30,08,07,1.80
2019,01,30,08,08,1.80
2019,01,30,08,09,1.80
2019,01,30,08,10,1.80
2019,01,30,08,11,1.80
2019,01,30,08,12,1.80
2019,01,30,08,13,1.80
2019,01,30,08,14,1.80
2019,01,30,08,15,1.80
2019,01,30,08,16,1.80
2019,01,30,08,17,1.80
2019,01,30,08,18,1.80
2019,01,30,08,19,1.80
2019,01,30,08,20,1.80
2019,01,30,08,21,1.80
2019,01,30,08,22,1.80
2019,01,30,08,23,1.80
2019,01,30,08,24,1.90
2019,01,30,08,25,1.90
2019,01,30,08,26,1.90
2019,01,30,08,27,1.90
2019,01,30,08,28,1.90
2019,01,30,08,29,1.90
2019,01,30,08,30,1.90
2019,01,30,08,31,1.90
2019,01,30,08,32,1.90
2019,01,30,08,33,2.00
2019,01,30,08,34,2.00
2019,01,30,08,35,2.00
2019,01,30,08,36,2.00
2019,01,30,08,37,2.00
2019,01,30,08,38,2.10
2019,01,30,08,39,2.10
2019,01,30,08,40,2.10
2019,01,30,08,41,2.10
2019,01,30,08,42,2.10
2019,01,30,08,43,2.10
2019,01,30,08,44,2.10
2019,01,30,08,45,2.20
2019,01,30,08,46,2.20
2019,01,30,08,47,2.20
2019,01,30,08,48,2.20
2019,01,30,08,49,2.20
2019,01,30,08,50,2.20
2019,01,30,08,51,2.20
2019,01,30,08,52,2.20
2019,01,30,08,53,2.20
2019,01,30,08,54,2.30
2019,01,30,08,55,2.30
2019,01,30,08,56,2.30
2019,01,30,08,57,2.30
2019,01,30,08,58,2.30
2019,01,30,08,59,2.40
2019,01,30,09,00,2.40
2019,01,30,09,01,2.40
2019,01,30,09,02,2.40
2019,01,30,09,03,2.50
2019,01,30,09,04,2.50
2019,01,30,09,05,2.50
2019,01,30,09,06,2.60
2019,01,30,09,07,2.60
2019,01,30,09,08,2.60
2019,01,30,09,09,2.60
2019,01,30,09,10,2.60
2019,01,30,09,11,2.60
2019,01,30,09,12,2.70
2019,01,30,09,13,2.70
2019,01,30,09,14,2.70
2019,01,30,09,15,2.70
2019,01,30,09,16,2.80
2019,01,30,09,17,2.80
2019,01,30,09,18,2.80
2019,01,30,09,19,2.80
2019,01,30,09,20,2.80
2019,01,30,09,21,2.90
2019,01,30,09,22,2.90
2019,01,30,09,23,2.90
2019,01,30,09,24,2.90
2019,01,30,09,25,3.00
2019,01,30,09,26,3.00
2019,01,30,09,27,3.10
2019,01,30,09,28,3.10
2019,01,30,09,29,3.10
2019,01,30,09,30,3.20
2019,01,30,09,31,3.20
2019,01,30,09,32,3.30
2019,01,30,09,33,3.30
2019,01,30,09,34,3.40
2019,01,30,09,35,3.40
2019,01,30,09,36,3.50
2019,01,30,09,37,3.60
2019,01,30,09,38,3.60
2019,01,30,09,39,3.70
2019,01,30,09,40,3.70
2019,01,30,09,41,3.80
2019,01,30,09,42,3.90
2019,01,30,09,43,4.00
2019,01,30,09,44,4.10
2019,01,30,09,45,4.10
2019,01,30,09,46,4.20
2019,01,30,09,47,4.30
2019,01,30,09,48,4.30
2019,01,30,09,49,4.30
2019,01,30,09,50,4.40
2019,01,30,09,51,4.40
2019,01,30,09,52,4.50
2019,01,30,09,53,4.50
2019,01,30,09,54,4.50
2019,01,30,09,55,4.60
2019,01,30,09,56,4.60
2019,01,30,09,57,4.60
2019,01,30,09,58,4.60
2019,01,30,09,59,4.60
2019,01,30,10,00,4.60
2019,01,30,10,01,4.60
2019,01,30,10,02,4.60
2019,01,30,10,03,4.60
2019,01,30,10,04,4.60
2019,01,30,10,05,4.60
2019,01,30,10,06,4.60
2019,01,30,10,07,4.60
2019,01,30,10,08,4.60
2019,01,30,10,09,4.60
2019,01,30,10,10,4.60
2019,01,30,10,11,4.60
2019,01,30,10,12,4.60
2019,01,30,10,13,4.60
2019,01,30,10,14,4.60
2019,01,30,10,15,4.60
2019,01,30,10,16,4.60
2019,01,30,10,17,4.60
2019,01,30,10,18,4.60
2019,01,30,10,19,4.60
2019,01,30,10,20,4.60
2019,01,30,10,21,4.60
2019,01,30,10,22,4.60
2019,01,30,10,23,4.60
2019,01,30,10,24,4.60
2019,01,30,10,25,4.60
2019,01,30,10,26,4.60
2019,01,30,10,27,4.70
2019,01,30,10,28,4.70
2019,01,30,10,29,4.70
2019,01,30,10,30,4.70
2019,01,30,10,31,4.70
2019,01,30,10,32,4.70
2019,01,30,10,33,4.70
2019,01,30,10,34,4.70
2019,01,30,10,35,4.80
2019,01,30,10,36,4.80
2019,01,30,10,37,4.80
2019,01,30,10,38,4.80
2019,01,30,10,39,4.80
2019,01,30,10,40,4.80
2019,01,30,10,41,4.80
2019,01,30,10,42,4.80
2019,01,30,10,43,4.80
2019,01,30,10,44,4.90
2019,01,30,10,45,4.90
2019,01,30,10,46,5.00
2019,01,30,10,47,5.00
2019,01,30,10,48,5.00
2019,01,30,10,49,5.10
2019,01,30,10,50,5.10
2019,01,30,10,51,5.10
2019,01,30,10,52,5.20
2019,01,30,10,53,5.20
2019,01,30,10,54,5.20
2019,01,30,10,55,5.20
2019,01,30,10,56,5.30
2019,01,30,10,57,5.30
2019,01,30,10,58,5.30
2019,01,30,10,59,5.30
2019,01,30,11,00,5.30
2019,01,30,11,01,5.40
2019,01,30,11,02,5.40
2019,01,30,11,03,5.40
2019,01,30,11,04,5.40
2019,01,30,11,05,5.50
2019,01,30,11,06,5.50
2019,01,30,11,08,5.60
2019,01,30,11,09,5.60
2019,01,30,11,10,5.60
2019,01,30,11,11,5.60
2019,01,30,11,12,5.60
2019,01,30,11,13,5.70
2019,01,30,11,14,5.70
2019,01,30,11,15,5.70
2019,01,30,11,16,5.70
2019,01,30,11,17,5.80
2019,01,30,11,18,5.80
2019,01,30,11,19,5.80
2019,01,30,11,20,5.80
2019,01,30,11,21,5.90
2019,01,30,11,22,5.90
2019,01,30,11,23,5.90
2019,01,30,11,24,6.00
2019,01,30,11,25,6.00
2019,01,30,11,26,6.00
2019,01,30,11,27,6.10
2019,01,30,11,28,6.10
2019,01,30,11,29,6.10
2019,01,30,11,30,6.10
2019,01,30,11,31,6.20
2019,01,30,11,32,6.20
2019,01,30,11,33,6.20
2019,01,30,11,34,6.20
2019,01,30,11,35,6.20
2019,01,30,11,36,6.30
2019,01,30,11,37,6.30
2019,01,30,11,38,6.30
2019,01,30,11,39,6.30
2019,01,30,11,40,6.30
2019,01,30,11,41,6.30
2019,01,30,11,42,6.30
2019,01,30,11,43,6.30
2019,01,30,11,44,6.40
2019,01,30,11,45,6.40
2019,01,30,11,46,6.40
2019,01,30,11,47,6.50
2019,01,30,11,48,6.50
2019,01,30,11,49,6.60
2019,01,30,11,50,6.60
2019,01,30,11,51,6.60
2019,01,30,11,52,6.70
2019,01,30,11,53,6.70
2019,01,30,11,54,6.70
2019,01,30,11,55,6.80
2019,01,30,11,56,6.80
2019,01,30,11,57,6.80
2019,01,30,11,58,6.90
2019,01,30,11,59,6.90
2019,01,30,12,00,6.90
2019,01,30,12,01,6.90
2019,01,30,12,02,7.00
2019,01,30,12,03,7.00
2019,01,30,12,04,7.00
2019,01,30,12,05,7.00
